Date String (YYYY-MM-DD hh:mm:ss) UTC,Instrument flags,absolute air pressure of the measurement (hPa),sample flow rate (lpm),inlet stack bypass flow (lpm),air temperature of the measurement (°C),ambient temperature measured by the external sensor (°C),aerosol sample conditioner tube jacket temperature (°C),OPC LED temperature (°C),internal box temperature (°C),relative humidity of the measurement (%),span deviation,mass concentration of particles derived from Lorenz-Mie calculation of OPC scattering (μg/m³),mass concentration of particles derived from Lorenz-Mie calculation of OPC scattering (μg/m³),mass concentration of particles derived from Lorenz-Mie calculation of OPC scattering (μg/m³)
DateTimeUTC,F1_M11,P_M11,Q1_M11,Q2_M11,T1_M11,T2_M11,T3_M11,T4_M11,T5_M11,U1_M11,ZSPAN_M11,X0_M11,X2_M11,X1_M11
2023-09-20 14:00:00,SystemResetWarning,0829.4,5.00,000.00,028.6,026.6,000.0,037.1,030.1,20.3,0000.0,0005.04,0002.02,0001.65
2023-09-20 14:01:00,SystemResetWarning,0829.4,5.00,000.00,028.6,026.7,000.0,037.1,030.2,19.4,0000.0,0005.09,0002.05,0001.64
2023-09-20 14:02:00,SystemResetWarning,0829.4,5.00,000.00,028.6,026.9,000.0,037.1,030.2,19.5,0000.0,0005.09,0002.09,0001.65
2023-09-20 14:03:00,SystemResetWarning,0829.4,4.99,000.00,028.6,027.0,000.0,037.0,030.2,19.2,0000.0,0004.95,0002.13,0001.66
2023-09-20 14:04:00,SystemResetWarning,0829.4,4.99,000.00,028.6,027.0,000.0,037.0,030.3,18.8,0000.0,0004.76,0002.11,0001.66
2023-09-20 14:05:00,SystemResetWarning,0829.4,5.01,000.00,028.7,027.1,000.0,037.0,030.3,18.5,0000.0,0004.70,0002.10,0001.65
2023-09-20 14:06:00,SystemResetWarning,0829.5,5.01,000.00,028.7,027.2,000.0,037.0,030.3,18.8,0000.0,0004.57,0002.10,0001.65
2023-09-20 14:07:00,SystemResetWarning,0829.4,5.01,000.00,028.7,027.2,000.0,037.0,030.4,18.7,0000.0,0004.24,0002.08,0001.65
2023-09-20 14:08:00,SystemResetWarning,0829.4,5.00,000.00,028.7,027.3,000.0,037.0,030.4,18.0,0000.0,0003.59,0002.05,0001.65
2023-09-20 14:09:00,SystemResetWarning,0829.5,4.99,000.00,028.7,027.3,000.0,037.0,030.4,18.2,0000.0,0003.03,0002.06,0001.64
2023-09-20 14:10:00,SystemResetWarning,0829.4,4.99,000.00,028.8,027.4,000.0,037.0,030.5,18.3,0000.0,0003.13,0002.08,0001.63
2023-09-20 14:11:00,SystemResetWarning,0829.5,4.99,000.00,028.8,027.4,000.0,037.0,030.5,18.1,0000.0,0003.18,0002.07,0001.62
2023-09-20 14:12:00,SystemResetWarning,0829.5,5.00,000.00,028.8,027.4,000.0,037.1,030.5,18.2,0000.0,0003.07,0002.02,0001.62
2023-09-20 14:13:00,SystemResetWarning,0829.5,5.01,000.00,028.8,027.5,000.0,037.1,030.5,18.2,0000.0,0002.95,0001.97,0001.60
2023-09-20 14:14:00,SystemResetWarning,0829.6,5.01,000.00,028.8,027.5,000.0,037.1,030.5,18.9,0000.0,0002.81,0001.90,0001.59
2023-09-20 14:15:00,SystemResetWarning,0829.6,5.00,000.00,028.8,027.5,000.0,037.1,030.5,18.6,0000.0,0002.76,0001.90,0001.58
2023-09-20 14:16:00,SystemResetWarning,0829.6,5.00,000.00,028.9,027.5,000.0,037.1,030.6,18.8,0000.0,0002.78,0001.91,0001.57
2023-09-20 14:17:00,SystemResetWarning,0829.6,4.99,000.00,028.9,027.5,000.0,037.1,030.6,19.3,0000.0,0002.85,0001.93,0001.55
2023-09-20 14:18:00,SystemResetWarning,0829.7,4.99,000.00,028.9,027.5,000.0,037.1,030.6,20.0,0000.0,0002.74,0001.90,0001.54
2023-09-20 14:19:00,SystemResetWarning,0829.7,5.01,000.00,028.9,027.6,000.0,037.1,030.6,19.7,0000.0,0002.75,0001.90,0001.53
2023-09-20 14:20:00,SystemResetWarning,0829.7,5.01,000.00,028.9,027.6,000.0,037.2,030.7,18.6,0000.0,0002.73,0001.88,0001.52
2023-09-20 14:21:00,SystemResetWarning,0829.7,5.00,000.00,028.9,027.6,000.0,037.2,030.7,18.2,0000.0,0002.71,0001.90,0001.52
2023-09-20 14:22:00,SystemResetWarning,0829.6,4.99,000.00,029.0,027.6,000.0,037.2,030.7,18.0,0000.0,0002.65,0001.89,0001.52
2023-09-20 14:23:00,SystemResetWarning,0829.6,4.99,000.00,029.0,027.6,000.0,037.2,030.7,18.4,0000.0,0002.65,0001.90,0001.50
2023-09-20 14:24:00,SystemResetWarning,0829.5,4.99,000.00,029.0,026.5,000.0,037.2,030.4,18.6,0000.0,0002.69,0001.92,0001.51
2023-09-20 14:25:00,SystemResetWarning,0829.4,5.00,000.00,028.8,024.9,000.0,037.1,029.9,18.6,0000.0,0002.77,0001.95,0001.51
2023-09-20 14:26:00,SystemResetWarning,0829.4,5.01,000.00,028.7,024.7,000.0,037.1,029.9,18.6,0000.0,0002.96,0001.99,0001.51
2023-09-20 14:27:00,SystemResetWarning,0829.4,5.02,000.00,028.6,024.9,000.0,037.0,029.8,18.9,0000.0,0003.15,0001.99,0001.51
2023-09-20 14:28:00,SystemResetWarning,0829.4,5.00,000.00,028.5,025.3,000.0,037.0,029.7,18.3,0000.0,0003.22,0001.99,0001.51
2023-09-20 14:29:00,SystemResetWarning,0829.5,5.00,000.00,028.5,025.6,000.0,037.0,029.8,18.0,0000.0,0003.20,0002.01,0001.52
2023-09-20 14:30:00,SystemResetWarning,0829.5,5.00,000.00,028.5,025.9,000.0,037.0,029.9,17.7,0000.0,0003.11,0002.01,0001.53
2023-09-20 14:31:00,SystemResetWarning,0829.5,5.00,000.00,028.5,026.1,000.0,037.0,029.9,17.9,0000.0,0003.09,0002.01,0001.54
2023-09-20 14:32:00,SystemResetWarning,0829.5,5.00,000.00,028.5,026.4,000.0,036.9,030.0,17.4,0000.0,0003.13,0002.00,0001.56
2023-09-20 14:33:00,SystemResetWarning,0829.5,5.00,000.00,028.5,026.5,000.0,036.9,030.0,17.3,0000.0,0003.33,0002.02,0001.56
2023-09-20 14:34:00,SystemResetWarning,0829.5,5.00,000.00,028.5,026.7,000.0,036.9,030.1,17.6,0000.0,0003.47,0002.06,0001.56
2023-09-20 14:35:00,SystemResetWarning,0829.6,5.00,000.00,028.5,026.8,000.0,036.9,030.1,17.5,0000.0,0003.58,0002.11,0001.57
2023-09-20 14:36:00,SystemResetWarning,0829.6,5.00,000.00,028.5,026.9,000.0,036.9,030.1,17.6,0000.0,0003.68,0002.14,0001.58
2023-09-20 14:37:00,SystemResetWarning,0829.6,4.99,000.00,028.5,027.0,000.0,036.9,030.2,17.5,0000.0,0003.56,0002.11,0001.58
2023-09-20 14:38:00,SystemResetWarning,0829.6,5.00,000.00,028.6,027.1,000.0,036.9,030.2,17.4,0000.0,0003.43,0002.11,0001.58
2023-09-20 14:39:00,SystemResetWarning,0829.7,5.00,000.00,028.6,027.2,000.0,036.9,030.2,17.7,0000.0,0003.84,0002.10,0001.58
2023-09-20 14:40:00,SystemResetWarning,0829.7,5.00,000.00,028.6,027.2,000.0,036.9,030.3,17.8,0000.0,0004.60,0002.10,0001.58
2023-09-20 14:41:00,SystemResetWarning,0829.7,5.01,000.00,028.6,027.3,000.0,036.9,030.3,17.2,0000.0,0004.59,0002.09,0001.58
2023-09-20 14:42:00,SystemResetWarning,0829.6,5.01,000.00,028.7,027.4,000.0,036.9,030.3,19.7,0000.0,0005.11,0002.12,0001.58
2023-09-20 14:43:00,SystemResetWarning,0829.6,5.00,000.00,028.7,027.4,000.0,036.9,030.4,22.5,0000.0,0005.19,0002.11,0001.57
2023-09-20 14:44:00,SystemResetWarning,0829.7,4.99,000.00,028.7,027.4,000.0,037.0,030.4,22.5,0000.0,0005.13,0002.12,0001.57
2023-09-20 14:45:00,SystemResetWarning,0829.7,5.00,000.00,028.7,027.5,000.0,037.0,030.4,21.8,0000.0,0005.25,0002.13,0001.57
2023-09-20 14:46:00,SystemResetWarning,0829.6,5.00,000.00,028.8,027.5,000.0,037.0,030.5,21.9,0000.0,0005.09,0002.06,0001.57
2023-09-20 14:47:00,SystemResetWarning,0829.6,5.00,000.00,028.8,027.1,000.0,037.0,030.4,22.3,0000.0,0004.91,0002.01,0001.56
2023-09-20 14:48:00,SystemResetWarning,0829.5,5.00,000.00,028.7,025.5,000.0,037.0,029.8,22.5,0000.0,0004.85,0001.99,0001.56
2023-09-20 14:49:00,SystemResetWarning,0829.5,5.01,000.00,028.5,024.7,000.0,036.9,029.6,23.0,0000.0,0004.80,0001.97,0001.57
2023-09-20 14:50:00,SystemResetWarning,0829.5,5.00,000.00,028.4,024.8,000.0,036.9,029.6,22.9,0000.0,0004.30,0001.97,0001.57
2023-09-20 14:51:00,SystemResetWarning,0829.5,5.01,000.00,028.4,025.1,000.0,036.8,029.5,22.9,0000.0,0003.57,0001.98,0001.57
2023-09-20 14:52:00,SystemResetWarning,0829.5,4.99,000.00,028.3,025.4,000.0,036.8,029.6,22.9,0000.0,0003.64,0002.01,0001.57
2023-09-20 14:53:00,SystemResetWarning,0829.4,4.99,000.00,028.3,025.7,000.0,036.8,029.6,23.4,0000.0,0003.22,0002.02,0001.57
2023-09-20 14:54:00,SystemResetWarning,0829.5,5.00,000.00,028.3,026.0,000.0,036.8,029.7,22.8,0000.0,0003.06,0002.04,0001.58
2023-09-20 14:55:00,SystemResetWarning,0829.5,5.01,000.00,028.3,026.2,000.0,036.8,029.8,22.5,0000.0,0003.08,0002.03,0001.60
2023-09-20 14:56:00,SystemResetWarning,0829.5,5.01,000.00,028.3,026.4,000.0,036.8,029.9,23.1,0000.0,0003.02,0002.01,0001.61
2023-09-20 14:57:00,SystemResetWarning,0829.5,4.99,000.00,028.3,026.6,000.0,036.8,029.9,23.6,0000.0,0003.32,0002.06,0001.62
2023-09-20 14:58:00,SystemResetWarning,0829.5,4.99,000.00,028.4,026.8,000.0,036.8,029.9,23.2,0000.0,0003.39,0002.08,0001.63
2023-09-20 14:59:00,SystemResetWarning,0829.4,5.01,000.00,028.4,026.9,000.0,036.8,030.0,22.7,0000.0,0003.49,0002.11,0001.63
